{"data":{"norad_id":48662,"intl_designator":"2021-044AA","name":"STARLINK-2726","alt_names":[],"object_type":"PAYLOAD","status":"ACTIVE","operator":null,"country":"US","launch_date":"2021-05-26","launch_site_code":"AFETR","launch_vehicle":null,"mission":null,"orbit_class":"UNKNOWN","rcs_meters":null,"size_class":null,"mass_kg":null,"dimensions":null,"purposes":["comms"],"wikipedia_slug":null,"has_3d_model":false,"image_url":null,"decayed_at":null,"tle_current":{"epoch":"2026-05-25T02:26:08.176128Z","epoch_age_seconds":76799,"freshness":"FRESH","line1":"1 48662U 21044AA  26145.10148352 -.00000469  00000+0 -38961-5 0  9991","line2":"2 48662  53.1543 118.9759 0001730  87.4908 272.6290 15.29352980275518","mean_motion":15.2935298,"eccentricity":0.000173,"inclination_deg":53.1543,"raan_deg":118.9759,"arg_perigee_deg":87.4908,"mean_anomaly_deg":272.629,"bstar":-3.8961e-6,"rev_number":27551,"period_min":94.157465204665,"perigee_km":476.55921800049,"apogee_km":478.93135327132,"semimajor_km":6855.8822856359,"source":"CELESTRAK","updated_at":"2026-05-25T13:38:16.757266Z"}}}